Time,TemperatureF,DewpointF,PressureIn,WindDirection,WindDirectionDegrees,WindSpeedMPH,WindSpeedGustMPH,Humidity,HourlyPrecipIn,Conditions,Clouds,dailyrainin,SoftwareType,DateUTC
2013-03-26 00:02:00,58.0,33.0,-100.00,ESE,119,8.0,11.0,38,-99.99,,,-99.99,,2013-03-26 07:02:00,
2013-03-26 00:12:00,58.0,33.0,-100.00,SE,124,8.0,11.0,38,-99.99,,,-99.99,,2013-03-26 07:12:00,
2013-03-26 00:22:00,58.0,31.0,-100.00,SE,128,8.0,10.0,36,-99.99,,,-99.99,,2013-03-26 07:22:00,
2013-03-26 00:32:00,58.0,31.0,-100.00,SE,129,7.0,10.0,36,-99.99,,,-99.99,,2013-03-26 07:32:00,
2013-03-26 00:42:00,57.0,30.0,-100.00,ESE,122,7.0,10.0,35,-99.99,,,-99.99,,2013-03-26 07:42:00,
2013-03-26 00:52:00,57.0,30.0,-100.00,ESE,120,7.0,9.0,35,-99.99,,,-99.99,,2013-03-26 07:52:00,
2013-03-26 01:02:00,57.0,27.0,-100.00,ESE,121,6.0,10.0,32,-99.99,,,-99.99,,2013-03-26 08:02:00,
2013-03-26 01:12:00,57.0,25.0,-100.00,SE,126,8.0,10.0,29,-99.99,,,-99.99,,2013-03-26 08:12:00,
2013-03-26 01:22:00,56.0,23.0,-100.00,SE,131,7.0,10.0,28,-99.99,,,-99.99,,2013-03-26 08:22:00,
2013-03-26 01:42:00,57.0,22.0,-100.00,SE,130,7.0,10.0,25,-99.99,,,-99.99,,2013-03-26 08:42:00,
2013-03-26 01:52:00,56.0,21.0,-100.00,ESE,123,7.0,9.0,25,-99.99,,,-99.99,,2013-03-26 08:52:00,
2013-03-26 02:02:00,56.0,23.0,-100.00,SE,125,5.0,7.0,27,-99.99,,,-99.99,,2013-03-26 09:02:00,
2013-03-26 02:12:00,54.0,22.0,-100.00,ESE,119,7.0,9.0,28,-99.99,,,-99.99,,2013-03-26 09:12:00,
2013-03-26 02:22:00,55.0,22.0,-100.00,ESE,122,8.0,10.0,27,-99.99,,,-99.99,,2013-03-26 09:22:00,
2013-03-26 02:32:00,56.0,22.0,-100.00,SE,127,8.0,10.0,26,-99.99,,,-99.99,,2013-03-26 09:32:00,
2013-03-26 02:42:00,56.0,21.0,-100.00,ESE,123,9.0,11.0,25,-99.99,,,-99.99,,2013-03-26 09:42:00,
2013-03-26 02:52:00,58.0,19.0,-100.00,SE,125,7.0,10.0,22,-99.99,,,-99.99,,2013-03-26 09:52:00,
2013-03-26 03:02:00,58.0,19.0,-100.00,SE,124,7.0,10.0,22,-99.99,,,-99.99,,2013-03-26 10:02:00,
2013-03-26 03:12:00,57.0,21.0,-100.00,SE,133,6.0,7.0,24,-99.99,,,-99.99,,2013-03-26 10:12:00,
2013-03-26 03:22:00,55.0,22.0,-100.00,ESE,121,7.0,9.0,27,-99.99,,,-99.99,,2013-03-26 10:22:00,
2013-03-26 03:32:00,54.0,22.0,-100.00,ESE,117,7.0,10.0,29,-99.99,,,-99.99,,2013-03-26 10:32:00,
2013-03-26 03:42:00,54.0,22.0,-100.00,ESE,117,9.0,10.0,28,-99.99,,,-99.99,,2013-03-26 10:42:00,
2013-03-26 03:52:00,54.0,22.0,-100.00,ESE,117,8.0,11.0,28,-99.99,,,-99.99,,2013-03-26 10:52:00,
2013-03-26 04:02:00,54.0,22.0,-100.00,ESE,116,9.0,12.0,29,-99.99,,,-99.99,,2013-03-26 11:02:00,
2013-03-26 04:12:00,55.0,23.0,-100.00,ESE,116,8.0,11.0,28,-99.99,,,-99.99,,2013-03-26 11:12:00,
2013-03-26 04:21:00,54.0,22.0,-100.00,ESE,115,8.0,10.0,29,-99.99,,,-99.99,,2013-03-26 11:21:00,
2013-03-26 04:32:00,53.0,23.0,-100.00,ESE,114,8.0,9.0,31,-99.99,,,-99.99,,2013-03-26 11:32:00,
2013-03-26 04:42:00,53.0,24.0,-100.00,ESE,114,8.0,9.0,32,-99.99,,,-99.99,,2013-03-26 11:42:00,
2013-03-26 04:52:00,53.0,25.0,-100.00,ESE,113,8.0,10.0,33,-99.99,,,-99.99,,2013-03-26 11:52:00,
2013-03-26 05:02:00,52.0,25.0,-100.00,ESE,113,8.0,10.0,35,-99.99,,,-99.99,,2013-03-26 12:02:00,
2013-03-26 05:12:00,53.0,26.0,-100.00,ESE,112,9.0,11.0,35,-99.99,,,-99.99,,2013-03-26 12:12:00,
2013-03-26 05:21:00,53.0,25.0,-100.00,ESE,116,10.0,11.0,34,-99.99,,,-99.99,,2013-03-26 12:21:00,
2013-03-26 05:32:00,55.0,26.0,-100.00,SE,125,7.0,10.0,32,-99.99,,,-99.99,,2013-03-26 12:32:00,
2013-03-26 05:42:00,55.0,26.0,-100.00,SE,128,6.0,8.0,32,-99.99,,,-99.99,,2013-03-26 12:42:00,
2013-03-26 05:52:00,55.0,26.0,-100.00,SE,127,5.0,6.0,32,-99.99,,,-99.99,,2013-03-26 12:52:00,
2013-03-26 06:02:00,53.0,27.0,-100.00,ESE,117,6.0,8.0,37,-99.99,,,-99.99,,2013-03-26 13:02:00,
2013-03-26 06:12:00,52.0,27.0,-100.00,ESE,113,7.0,8.0,37,-99.99,,,-99.99,,2013-03-26 13:12:00,
2013-03-26 06:22:00,52.0,27.0,-100.00,ESE,115,8.0,9.0,37,-99.99,,,-99.99,,2013-03-26 13:22:00,
2013-03-26 06:32:00,52.0,27.0,-100.00,ESE,115,8.0,9.0,37,-99.99,,,-99.99,,2013-03-26 13:32:00,
2013-03-26 06:42:00,51.0,26.0,-100.00,ESE,116,8.0,10.0,37,-99.99,,,-99.99,,2013-03-26 13:42:00,
2013-03-26 06:52:00,52.0,25.0,-100.00,ESE,112,9.0,11.0,34,-99.99,,,-99.99,,2013-03-26 13:52:00,
2013-03-26 07:01:00,53.0,23.0,-100.00,ESE,116,9.0,11.0,31,-99.99,,,-99.99,,2013-03-26 14:01:00,
2013-03-26 07:11:00,53.0,23.0,-100.00,ESE,116,9.0,10.0,31,-99.99,,,-99.99,,2013-03-26 14:11:00,
2013-03-26 07:21:00,52.0,22.0,-100.00,ESE,111,9.0,10.0,31,-99.99,,,-99.99,,2013-03-26 14:21:00,
2013-03-26 07:32:00,52.0,23.0,-100.00,ESE,112,8.0,10.0,32,-99.99,,,-99.99,,2013-03-26 14:32:00,
2013-03-26 07:42:00,52.0,22.0,-100.00,ESE,107,9.0,10.0,31,-99.99,,,-99.99,,2013-03-26 14:42:00,
2013-03-26 07:52:00,52.0,23.0,-100.00,ESE,110,9.0,10.0,32,-99.99,,,-99.99,,2013-03-26 14:52:00,
2013-03-26 08:02:00,51.0,23.0,-100.00,ESE,114,7.0,9.0,33,-99.99,,,-99.99,,2013-03-26 15:02:00,
2013-03-26 08:12:00,51.0,22.0,-100.00,ESE,114,8.0,9.0,32,-99.99,,,-99.99,,2013-03-26 15:12:00,
2013-03-26 08:21:00,52.0,22.0,-100.00,ESE,113,8.0,10.0,31,-99.99,,,-99.99,,2013-03-26 15:21:00,
2013-03-26 08:33:00,52.0,22.0,-100.00,ESE,110,8.0,10.0,31,-99.99,,,-99.99,,2013-03-26 15:33:00,
2013-03-26 08:42:00,52.0,23.0,-100.00,ESE,108,9.0,10.0,32,-99.99,,,-99.99,,2013-03-26 15:42:00,
2013-03-26 08:52:00,53.0,24.0,-100.00,ESE,104,8.0,9.0,32,-99.99,,,-99.99,,2013-03-26 15:52:00,
2013-03-26 09:02:00,53.0,24.0,-100.00,ESE,104,8.0,9.0,32,-99.99,,,-99.99,,2013-03-26 16:02:00,
2013-03-26 09:12:00,58.0,27.0,-100.00,ESE,110,3.0,5.0,30,-99.99,,,-99.99,,2013-03-26 16:12:00,
2013-03-26 09:22:00,60.0,24.0,-100.00,ESE,114,1.0,3.0,25,-99.99,,,-99.99,,2013-03-26 16:22:00,
2013-03-26 09:32:00,62.0,23.0,-100.00,ESE,115,2.0,4.0,22,-99.99,,,-99.99,,2013-03-26 16:32:00,
2013-03-26 09:42:00,62.0,23.0,-100.00,South,180,2.0,3.0,22,-99.99,,,-99.99,,2013-03-26 16:42:00,
2013-03-26 09:53:00,62.0,24.0,-100.00,SSW,194,2.0,4.0,23,-99.99,,,-99.99,,2013-03-26 16:53:00,
2013-03-26 10:02:00,62.0,24.0,-100.00,SSW,194,2.0,4.0,23,-99.99,,,-99.99,,2013-03-26 17:02:00,
2013-03-26 10:12:00,63.0,22.0,-100.00,SSW,197,3.0,6.0,21,-99.99,,,-99.99,,2013-03-26 17:12:00,
2013-03-26 10:22:00,63.0,22.0,-100.00,SSW,197,3.0,6.0,21,-99.99,,,-99.99,,2013-03-26 17:22:00,
2013-03-26 10:32:00,63.0,22.0,-100.00,SSW,197,3.0,6.0,21,-99.99,,,-99.99,,2013-03-26 17:32:00,
2013-03-26 10:42:00,63.0,24.0,-100.00,SW,214,2.0,5.0,22,-99.99,,,-99.99,,2013-03-26 17:42:00,
2013-03-26 10:53:00,63.0,24.0,-100.00,WSW,240,2.0,5.0,22,-99.99,,,-99.99,,2013-03-26 17:53:00,
2013-03-26 11:02:00,63.0,25.0,-100.00,West,273,4.0,6.0,23,-99.99,,,-99.99,,2013-03-26 18:02:00,
2013-03-26 11:12:00,63.0,24.0,-100.00,West,275,3.0,7.0,22,-99.99,,,-99.99,,2013-03-26 18:12:00,
2013-03-26 11:22:00,63.0,24.0,-100.00,SSW,212,3.0,6.0,22,-99.99,,,-99.99,,2013-03-26 18:22:00,
2013-03-26 11:33:00,64.0,22.0,-100.00,WSW,255,3.0,7.0,20,-99.99,,,-99.99,,2013-03-26 18:33:00,
2013-03-26 11:42:00,64.0,22.0,-100.00,WSW,255,3.0,7.0,20,-99.99,,,-99.99,,2013-03-26 18:42:00,
2013-03-26 11:52:00,63.0,18.0,-100.00,West,274,5.0,9.0,17,-99.99,,,-99.99,,2013-03-26 18:52:00,
2013-03-26 12:02:00,64.0,20.0,-100.00,West,260,4.0,8.0,18,-99.99,,,-99.99,,2013-03-26 19:02:00,
2013-03-26 12:12:00,64.0,18.0,-100.00,West,270,6.0,9.0,17,-99.99,,,-99.99,,2013-03-26 19:12:00,
2013-03-26 12:22:00,63.0,19.0,-100.00,West,271,5.0,11.0,18,-99.99,,,-99.99,,2013-03-26 19:22:00,
2013-03-26 12:32:00,64.0,22.0,-100.00,West,281,5.0,10.0,20,-99.99,,,-99.99,,2013-03-26 19:32:00,
2013-03-26 12:42:00,64.0,24.0,-100.00,WSW,253,6.0,14.0,22,-99.99,,,-99.99,,2013-03-26 19:42:00,
2013-03-26 12:52:00,63.0,24.0,-100.00,WSW,238,5.0,8.0,22,-99.99,,,-99.99,,2013-03-26 19:52:00,
2013-03-26 13:01:00,64.0,27.0,-100.00,West,261,6.0,12.0,25,-99.99,,,-99.99,,2013-03-26 20:01:00,
2013-03-26 13:12:00,63.0,26.0,-100.00,West,265,6.0,11.0,24,-99.99,,,-99.99,,2013-03-26 20:12:00,
2013-03-26 13:22:00,64.0,31.0,-100.00,WSW,244,5.0,10.0,29,-99.99,,,-99.99,,2013-03-26 20:22:00,
2013-03-26 13:32:00,64.0,31.0,-100.00,WSW,251,6.0,12.0,29,-99.99,,,-99.99,,2013-03-26 20:32:00,
2013-03-26 13:42:00,64.0,31.0,-100.00,WSW,251,6.0,12.0,29,-99.99,,,-99.99,,2013-03-26 20:42:00,
2013-03-26 13:52:00,63.0,30.0,-100.00,SW,235,6.0,12.0,29,-99.99,,,-99.99,,2013-03-26 20:52:00,
2013-03-26 14:02:00,64.0,32.0,-100.00,WNW,283,5.0,10.0,30,-99.99,,,-99.99,,2013-03-26 21:02:00,
2013-03-26 14:12:00,64.0,29.0,-100.00,WNW,286,5.0,9.0,27,-99.99,,,-99.99,,2013-03-26 21:12:00,
2013-03-26 14:22:00,64.0,31.0,-100.00,SW,232,6.0,10.0,29,-99.99,,,-99.99,,2013-03-26 21:22:00,
2013-03-26 14:32:00,64.0,33.0,-100.00,WSW,257,6.0,11.0,31,-99.99,,,-99.99,,2013-03-26 21:32:00,
2013-03-26 14:42:00,63.0,34.0,-100.00,WSW,255,5.0,10.0,34,-99.99,,,-99.99,,2013-03-26 21:42:00,
2013-03-26 14:52:00,64.0,37.0,-100.00,SW,230,6.0,12.0,36,-99.99,,,-99.99,,2013-03-26 21:52:00,
2013-03-26 15:01:00,63.0,36.0,-100.00,SW,236,7.0,12.0,37,-99.99,,,-99.99,,2013-03-26 22:01:00,
2013-03-26 15:12:00,63.0,36.0,-100.00,WSW,255,5.0,10.0,37,-99.99,,,-99.99,,2013-03-26 22:12:00,
2013-03-26 15:22:00,64.0,36.0,-100.00,WSW,247,5.0,10.0,35,-99.99,,,-99.99,,2013-03-26 22:22:00,
2013-03-26 15:32:00,62.0,35.0,-100.00,WSW,254,6.0,10.0,37,-99.99,,,-99.99,,2013-03-26 22:32:00,
2013-03-26 15:41:00,62.0,35.0,-100.00,West,278,6.0,11.0,37,-99.99,,,-99.99,,2013-03-26 22:41:00,
2013-03-26 15:52:00,63.0,36.0,-100.00,WSW,244,5.0,11.0,37,-99.99,,,-99.99,,2013-03-26 22:52:00,
2013-03-26 16:00:00,63.0,35.0,-100.00,West,264,6.0,12.0,35,-99.99,,,-99.99,,2013-03-26 23:00:00,
2013-03-26 16:10:00,63.0,36.0,-100.00,WSW,238,6.0,9.0,36,-99.99,,,-99.99,,2013-03-26 23:10:00,
2013-03-26 16:21:00,63.0,36.0,-100.00,WSW,257,5.0,10.0,36,-99.99,,,-99.99,,2013-03-26 23:21:00,
2013-03-26 16:31:00,62.0,35.0,-100.00,WSW,249,6.0,12.0,36,-99.99,,,-99.99,,2013-03-26 23:31:00,
2013-03-26 16:42:00,62.0,34.0,-100.00,WSW,257,6.0,12.0,35,-99.99,,,-99.99,,2013-03-26 23:42:00,
2013-03-26 16:52:00,61.0,34.0,-100.00,West,262,6.0,13.0,36,-99.99,,,-99.99,,2013-03-26 23:52:00,
2013-03-26 17:02:00,62.0,34.0,-100.00,WSW,243,5.0,10.0,35,-99.99,,,-99.99,,2013-03-27 00:02:00,
2013-03-26 17:12:00,62.0,34.0,-100.00,WSW,246,6.0,11.0,35,-99.99,,,-99.99,,2013-03-27 00:12:00,
2013-03-26 17:22:00,61.0,33.0,-100.00,WSW,253,6.0,11.0,35,-99.99,,,-99.99,,2013-03-27 00:22:00,
2013-03-26 17:32:00,60.0,31.0,-100.00,West,261,6.0,10.0,33,-99.99,,,-99.99,,2013-03-27 00:32:00,
2013-03-26 17:42:00,60.0,31.0,-100.00,West,261,6.0,10.0,33,-99.99,,,-99.99,,2013-03-27 00:42:00,
2013-03-26 17:52:00,60.0,32.0,-100.00,WSW,245,4.0,10.0,35,-99.99,,,-99.99,,2013-03-27 00:52:00,
2013-03-26 18:02:00,60.0,34.0,-100.00,WSW,244,5.0,10.0,37,-99.99,,,-99.99,,2013-03-27 01:02:00,
2013-03-26 18:12:00,60.0,32.0,-100.00,WSW,243,4.0,7.0,35,-99.99,,,-99.99,,2013-03-27 01:12:00,
2013-03-26 18:22:00,60.0,34.0,-100.00,WSW,241,4.0,9.0,38,-99.99,,,-99.99,,2013-03-27 01:22:00,
2013-03-26 18:32:00,59.0,35.0,-100.00,WSW,250,5.0,8.0,40,-99.99,,,-99.99,,2013-03-27 01:32:00,
2013-03-26 18:42:00,58.0,36.0,-100.00,WSW,245,4.0,7.0,44,-99.99,,,-99.99,,2013-03-27 01:42:00,
2013-03-26 18:52:00,57.0,37.0,-100.00,SW,233,3.0,5.0,47,-99.99,,,-99.99,,2013-03-27 01:52:00,
2013-03-26 19:02:00,57.0,39.0,-100.00,SW,232,2.0,5.0,50,-99.99,,,-99.99,,2013-03-27 02:02:00,
2013-03-26 19:12:00,56.0,39.0,-100.00,SW,229,2.0,3.0,52,-99.99,,,-99.99,,2013-03-27 02:12:00,
2013-03-26 19:21:00,55.0,40.0,-100.00,South,188,2.0,4.0,56,-99.99,,,-99.99,,2013-03-27 02:21:00,
2013-03-26 19:32:00,53.0,39.0,-100.00,ESE,121,3.0,3.0,59,-99.99,,,-99.99,,2013-03-27 02:32:00,
2013-03-26 19:42:00,53.0,38.0,-100.00,SE,124,3.0,4.0,56,-99.99,,,-99.99,,2013-03-27 02:42:00,
2013-03-26 19:52:00,52.0,35.0,-100.00,ESE,117,5.0,7.0,53,-99.99,,,-99.99,,2013-03-27 02:52:00,
2013-03-26 20:02:00,52.0,35.0,-100.00,ESE,116,6.0,7.0,52,-99.99,,,-99.99,,2013-03-27 03:02:00,
2013-03-26 20:11:00,51.0,33.0,-100.00,ESE,114,6.0,8.0,49,-99.99,,,-99.99,,2013-03-27 03:11:00,
2013-03-26 20:22:00,51.0,29.0,-100.00,ESE,111,7.0,9.0,42,-99.99,,,-99.99,,2013-03-27 03:22:00,
2013-03-26 20:32:00,51.0,26.0,-100.00,ESE,114,7.0,8.0,37,-99.99,,,-99.99,,2013-03-27 03:32:00,
2013-03-26 20:42:00,51.0,24.0,-100.00,ESE,110,7.0,9.0,34,-99.99,,,-99.99,,2013-03-27 03:42:00,
2013-03-26 20:52:00,51.0,19.0,-100.00,ESE,116,7.0,9.0,28,-99.99,,,-99.99,,2013-03-27 03:52:00,
2013-03-26 21:02:00,51.0,15.0,-100.00,ESE,120,7.0,8.0,23,-99.99,,,-99.99,,2013-03-27 04:02:00,
2013-03-26 21:12:00,51.0,8.0,-100.00,ESE,116,7.0,8.0,17,-99.99,,,-99.99,,2013-03-27 04:12:00,
2013-03-26 21:22:00,50.0,4.0,-100.00,ESE,114,6.0,8.0,15,-99.99,,,-99.99,,2013-03-27 04:22:00,
2013-03-26 21:32:00,52.0,1.0,-100.00,ESE,118,6.0,8.0,12,-99.99,,,-99.99,,2013-03-27 04:32:00,
2013-03-26 21:42:00,52.0,9.0,-100.00,ESE,121,6.0,8.0,17,-99.99,,,-99.99,,2013-03-27 04:42:00,
2013-03-26 21:52:00,51.0,10.0,-100.00,ESE,119,7.0,8.0,19,-99.99,,,-99.99,,2013-03-27 04:52:00,
2013-03-26 22:02:00,51.0,10.0,-100.00,ESE,116,6.0,7.0,19,-99.99,,,-99.99,,2013-03-27 05:02:00,
2013-03-26 22:12:00,50.0,13.0,-100.00,ESE,114,7.0,8.0,22,-99.99,,,-99.99,,2013-03-27 05:12:00,
2013-03-26 22:22:00,50.0,14.0,-100.00,ESE,111,6.0,8.0,23,-99.99,,,-99.99,,2013-03-27 05:22:00,
2013-03-26 22:32:00,50.0,14.0,-100.00,ESE,107,7.0,9.0,23,-99.99,,,-99.99,,2013-03-27 05:32:00,
2013-03-26 22:42:00,51.0,15.0,-100.00,ESE,108,6.0,9.0,23,-99.99,,,-99.99,,2013-03-27 05:42:00,
2013-03-26 22:52:00,51.0,16.0,-100.00,ESE,111,6.0,7.0,24,-99.99,,,-99.99,,2013-03-27 05:52:00,
2013-03-26 23:02:00,52.0,17.0,-100.00,ESE,111,5.0,7.0,25,-99.99,,,-99.99,,2013-03-27 06:02:00,
2013-03-26 23:11:00,51.0,19.0,-100.00,ESE,106,6.0,7.0,28,-99.99,,,-99.99,,2013-03-27 06:11:00,
2013-03-26 23:22:00,50.0,23.0,-100.00,ESE,106,6.0,7.0,34,-99.99,,,-99.99,,2013-03-27 06:22:00,
2013-03-26 23:32:00,52.0,27.0,-100.00,ESE,114,6.0,7.0,37,-99.99,,,-99.99,,2013-03-27 06:32:00,
2013-03-26 23:42:00,52.0,27.0,-100.00,ESE,114,6.0,7.0,37,-99.99,,,-99.99,,2013-03-27 06:42:00,
2013-03-26 23:52:00,50.0,31.0,-100.00,ESE,104,6.0,7.0,48,-99.99,,,-99.99,,2013-03-27 06:52:00,